Find the Weather for any City, State  
or Zipcode, or Country:

West Linn, OR 97068 Weather
Local Radar
Local Radar  
Graphs, Details
Graphs and Gauges
Detailed Weather
Detailed Reports
Maps
Temperature
Heat Index
Windchill
Humidity
Radar
Dew Point
Wind
Visibility
Visible Satellite
Satellite
Fronts
Snow Depth
Jet Stream
Flight Rules
Forecast Maps
Temperature Forecast
Maximum Temperature Forecast
Minimum Temperature Forecast
Dewpoint Forecast
Prevalent Weather
12Hr Probability of Precip.
Sky Cover
Health Maps
UV Forecast
Air Quality
Peak Air Quality Index
Weather Station
Oregon Scientific WMR-968
Current Conditions [Select Refresh to Update]
Updated: 9:15pm on 2/27/15
(location)
Currently:
44.8°
Clear
light rain
High: 51.4° 
(4:30pm) 
Low: 44.8° 
(8:49pm)
Wind: 0 mph from the NNE
Gust: 0 mph
Today's High Wind: 9 mph (12:30pm)
Humidity: 79%
Pressure: 29.78 in  (Steady) 
Pressure Rate: 0.019 in/hr
Dew Point: 38.7°
Wind Chill: 44.8°
Heat Index (feels like): 48.9°
Comfort Level: Cool
Temperature Rate:  -0.72°/hr
 
5 Day Forecast
 
Sat Sun Mon Tue Wed
Clear Clear Clear Clear Clear
Partly Cloudy Partly Cloudy Chance Rain Clear Clear
52° 54° 52° 52° 52°
32° 37° 34° 32° 30°
Records and Normals
 
Temperature Forecast Normal Record
High 52° 66°
(2005)
Low 32° 27°
(2009)
 
Weather Advisories
No Advisories
Full Advisory Text...
Weather Map
Almanac
 
Sunrise:  
6:50am
Moonrise: 
12:41pm
Moon Phase:
67%
Sunset: 
5:52pm
Moonset:  
2:57am
 Star Chart...
Rainfall Totals
Hourly Rain 0.00 in
Daily Rain: 0.08 in
Monthly Rain: 3.54 in
Yearly Rain: 55.47 in
Normal Rain, month to date: 4.45 in
Normal Rain, year to date: 7.44 in
Local Weather Exchange® Network
Station ID City 
(Click for Map Location)
Neighborhood 
(Click for History)
Last Update (Date & Time) Temperature
 (°)
Dew
Point (°)
Humidity 
(%)
Wind 
(mph)
from the Wind Gust 
(mph) 
Pressure (in) Hourly
Rain (in)
KORWESTL3 West Linn Sunburst II 02/27 21:15:05 44.8 39.0 79 0 NNE 4 29.78 0.00
KORWESTL18 West Linn Hidden Springs 02/27 21:11:21 46.2 40.0 78 0 North 0 29.60 0.00
KORWESTL7 West Linn Hidden Springs 02/27 21:12:44 45.5 40.0 81 0 East 4 29.75 0.00
KORWESTL16 West Linn Ferncreek 2 02/27 21:14:53 44.8 37.0 74 0 WNW 0 29.88 0.00
KORWESTL11 West Linn Ridgebrook Park 02/27 21:06:30 44.1 40.0 84 0 ENE 4 29.78 0.00
KORWESTL13 West Linn Vineland 02/27 21:14:11 45.7 36.0 68 0 East 0 29.39 0.00
KORWESTL1 West Linn Beaver Nation on Skyline Ridge 02/27 21:14:54 45.9 41.0 83 0 NE 6 29.79 0.00
KORWESTL19 West Linn Bolton 02/27 21:11:36 46.4 42.0 86 0 North 0 29.75 0.00
KORLAKEO12 Lake Oswego Marylhurst University 02/27 21:15:04 46.6 39.0 74 0 ESE 2 29.70 0.00
KOROREGO29 Oregon City Canemah Way 02/27 21:15:01 43.8 42.0 92 1 North 2 29.77 0.00
KORMILWA15 Milwaukie Jennings Lodge 02/27 21:07:08 43.9 41.0 90 0 WSW 0 29.47 0.00
KORGLADS5 GLADSTONE GLADSTONE (USA) 02/27 21:14:49 47.9 42.0 80 0 NNW 0 29.38 0.00
KORLAKEO17 Lake Oswego Palisades 02/27 21:11:15 44.8 40.0 83 0 North 0 29.80 0.00
KORMILWA13 Milwaukie Oak Grove 02/27 21:05:13 45.7 42.0 88 0 South 0 29.46 0.00
KOROREGO10 Oregon City Tower Vista 02/27 21:14:52 43.7 41.0 89 1 NW 3 29.77 0.00
KORGLADS6 Gladstone Gladstone - Gallweather.com 02/27 21:07:49 44.9 40.0 84 0 NNE 0 29.75 0.00
KORPORTL111 Portland Oakgrove PO 1E (Milwaukie) 02/27 21:14:55 46.8 41.0 80 0 ENE 0 29.76 0.00
KORGLADS4 Gladstone Gladstone - Go Beavers! 02/27 21:10:09 45.1 38.0 77 0 East 1 29.92 0.00
KORLAKEO20 Lake Oswego Palisades 02/27 21:11:16 46.4 42.0 85 0 North 0 29.84 0.00
KORLAKEO14 Lake Oswego Rivergrove 02/27 21:10:17 45.0 44.0 97 0 North 0 29.70 0.00
KOROREGO6 Oregon City Gaffney Lane Neighborhood 02/27 21:15:00 50.2 50.0 100 0 North 2 29.65 0.00
KORTUALA10 Tualatin Rosewood 02/27 21:11:15 52.0 44.0 75 0 North 0 29.77 0.00
KORMILWA14 Milwaukie Milwaukie - Webster Rd/Roots 02/27 21:08:29 45.3 41.0 85 0 SW 0 29.45 0.00
KORCLACK9 Clackamas 82nd Drive (GO BLAZERS) 02/27 21:15:02 45.1 41.0 85 0 ESE 0 29.77 0.00
KORCLACK8 Clackamas Watkins Park 02/27 21:14:48 45.1 39.0 80 0 WNW 1 29.70 0.00
KORLAKEO19 Lake Oswego Lakeview Boulevard 02/27 21:11:18 48.9 43.0 80 0 North 0 29.84 0.00
KORTUALA11 Tualatin Meridian Village 02/27 21:06:13 44.8 44.0 99 0 NNE 0 29.79 0.00
KORCLACK6 Clackamas CHPCS Falcons 02/27 21:03:20 47.3 41.0 78 0 North 0 29.70 0.00
KORLAKEO16 Lake Oswego Portland Near Road 02/27 20:50:22 47.7 0.0 83 1 North 0 --- 0.00
KORMILWA17 Milwaukie Linwood Neighborhood, Milwaukie, Or 02/27 21:15:03 46.6 41.0 81 0 NE 0 29.56 0.00
KORWESTL17 West Linn Peach Cove 02/27 21:08:21 44.4 44.0 99 0 SE 0 29.52 0.00
KORMILWA12 Milwaukie Historic Milwaukie 02/27 21:14:49 49.1 37.0 63 0 SE 0 29.39 0.00
KORLAKEO21 Lake Oswego Westlake 02/27 21:15:03 47.1 40.0 76 0 SE 0 29.47 0.00
KORTUALA2 Tualatin 3DAdams Weather 02/27 21:14:58 46.1 44.0 94 0 SW 0 29.78 0.00
KORPORTL245 Portland SW Portland - Tryon Creek 02/27 21:14:58 46.6 40.0 78 0 SW 0 29.82 0.00
KUAO Aurora Official Station 02/27 20:53:00 45.0 44.0 97 4 NNW --- 29.78 ---
KPDX Portland Official Station 02/27 20:53:00 47.0 39.0 74 10 East --- 29.79 ---
KVUO Vancouver Official Station 02/27 20:53:00 45.0 39.0 80 0 North --- 29.79 ---
KTTD Portland Troutdale Official Station 02/27 20:53:00 47.0 38.0 71 12 ESE --- 29.78 ---
Full Advisory Text
No Warnings

© Ambient Weather and Weather Underground
 Never base important decisions on this or any weather information obtained from the Internet
Updated Automatically by Ambient Weather's Virtual Weather Station  V13.01